KB5SJ Weather Reports


Display with metric or nautical units.
time (UTC)temp
F
wind
direction
speed
MPH
gust
MPH
rain 1hr
in
rain 24hr
in
rain mn
in
humidity
%
barometer
mb
20260505094535 70 0.0 0.0 0.00 0.00 0.00 95 1007.8
20260505093536 70 0.0 0.0 0.00 0.00 0.00 94 1007.9
20260505092516 70 0.0 0.0 0.00 0.00 0.00 94 1008.0
20260505091516 70 0.0 0.0 0.00 0.00 0.00 94 1007.9
20260505090556 70 0.0 0.0 0.00 0.00 0.00 94 1008.0
20260505085515 70 0.0 0.0 0.00 0.00 0.00 94 1008.0
20260505084536 70 0.0 0.0 0.00 0.00 0.00 94 1008.2
20260505083516 70 0.0 0.0 0.00 0.00 0.00 94 1008.3
20260505082515 70 0.0 1.0 0.00 0.00 0.00 94 1008.2
20260505081515 70 0.0 2.0 0.00 0.00 0.00 94 1008.4
20260505080515 69 0.0 0.0 0.00 0.00 0.00 94 1008.4
20260505075515 69 0.0 0.0 0.00 0.00 0.00 93 1008.3
20260505074516 69 0.0 0.0 0.00 0.00 0.00 93 1008.4
20260505073515 69 0.0 0.0 0.00 0.00 0.00 93 1008.6
20260505072515 69 0.0 0.0 0.00 0.00 0.00 92 1008.8
20260505071515 69 0.0 0.0 0.00 0.00 0.00 92 1008.8
20260505070515 69 0.0 0.0 0.00 0.00 0.00 92 1008.9
20260505065535 69 0.0 0.0 0.00 0.00 0.00 92 1009.0
20260505064515 70 0.0 0.0 0.00 0.00 0.00 91 1009.0
20260505063518 70 0.0 0.0 0.00 0.00 0.00 91 1009.2
20260505062517 70 0.0 0.0 0.00 0.00 0.00 90 1009.4
20260505061537 71 0.0 0.0 0.00 0.00 0.00 90 1009.3
20260505060517 71 0.0 0.0 0.00 0.00 0.00 89 1009.4
20260505055517 71 203 1.0 3.0 0.00 0.00 0.00 89 1009.5
20260505054517 71 0.0 2.0 0.00 0.00 0.00 88 1009.6
20260505053517 72 0.0 5.0 0.00 0.00 0.00 88 1009.5
20260505052537 72 0.0 1.0 0.00 0.00 0.00 87 1009.8
20260505051517 72 180 1.0 4.0 0.00 0.00 0.00 87 1009.8
20260505050517 73 203 1.0 2.0 0.00 0.00 0.00 86 1009.9
20260505041517 73 180 1.0 4.0 0.00 0.00 0.00 85 1009.7
20260505040517 73 203 2.0 8.0 0.00 0.00 0.00 86 1010.1
20260505035537 73 180 1.0 4.0 0.00 0.00 0.00 85 1010.0
20260505034517 73 203 2.0 4.0 0.00 0.00 0.00 85 1009.9
20260505033517 73 203 1.0 4.0 0.00 0.00 0.00 85 1010.0
20260505032517 73 0.0 2.0 0.00 0.00 0.00 85 1010.3
20260505031516 73 203 1.0 4.0 0.00 0.00 0.00 85 1010.2
20260505030517 73 203 1.0 5.0 0.00 0.00 0.00 84 1010.1
20260505025516 73 203 1.0 4.0 0.00 0.00 0.00 84 1009.9
20260505024516 73 203 2.0 7.0 0.00 0.00 0.00 84 1009.9
20260505023537 73 203 2.0 5.0 0.00 0.00 0.00 84 1009.9
20260505022517 72 180 2.0 6.0 0.00 0.00 0.00 84 1010.1
20260505021517 72 203 2.0 6.0 0.00 0.00 0.00 84 1010.0
20260505020516 73 203 1.0 3.0 0.00 0.00 0.00 84 1009.9
20260505015516 73 180 2.0 8.0 0.00 0.00 0.00 83 1009.6
20260505014516 73 203 2.0 6.0 0.00 0.00 0.00 83 1009.4
20260505013516 73 225 2.0 4.0 0.00 0.00 0.00 82 1009.6
20260505012516 74 203 1.0 5.0 0.00 0.00 0.00 81 1009.6
20260505011517 74 203 2.0 6.0 0.00 0.00 0.00 80 1009.3
20260505010517 74 203 2.0 8.0 0.00 0.00 0.00 80 1009.5
20260505005517 75 180 2.0 11.0 0.00 0.00 0.00 80 1009.6
20260505004517 75 203 2.0 6.0 0.00 0.00 0.00 79 1009.3
20260505003517 75 203 3.0 7.0 0.00 0.00 0.00 79 1009.4
20260505002516 75 180 3.0 9.0 0.00 0.00 0.00 78 1009.3
20260505001516 76 225 2.0 6.0 0.00 0.00 0.00 78 1009.5
20260505000517 76 225 2.0 6.0 0.00 0.00 0.00 77 1009.7
20260504235516 76 203 2.0 8.0 0.00 0.00 0.00 77 1009.7
20260504234516 77 203 3.0 11.0 0.00 0.00 0.00 76 1009.5
20260504233516 77 180 4.0 13.0 0.00 0.00 0.00 75 1009.6
20260504232516 78 180 6.0 15.0 0.00 0.00 0.00 74 1009.8
20260504231536 78 225 3.0 7.0 0.00 0.00 0.00 74 1009.8
20260504230516 78 203 3.0 8.0 0.00 0.00 0.00 75 1010.0
20260504225516 78 203 2.0 7.0 0.00 0.00 0.00 74 1010.0
20260504224516 78 180 4.0 10.0 0.00 0.00 0.00 73 1010.1
20260504223536 78 203 3.0 10.0 0.00 0.00 0.00 73 1010.1
20260504222536 78 203 4.0 11.0 0.00 0.00 0.00 73 1010.1
20260504221516 79 180 2.0 7.0 0.00 0.00 0.00 72 1010.3
20260504220516 79 180 2.0 12.0 0.00 0.00 0.00 72 1010.3
20260504215516 80 180 4.0 15.0 0.00 0.00 0.00 70 1010.2
20260504214516 81 158 3.0 9.0 0.00 0.00 0.00 70 1010.5
20260504213516 80 180 3.0 10.0 0.00 0.00 0.00 71 1010.6
20260504212517 80 180 4.0 11.0 0.00 0.00 0.00 70 1010.6
20260504211516 80 180 4.0 9.0 0.00 0.00 0.00 71 1010.9
20260504210516 80 203 3.0 11.0 0.00 0.00 0.00 69 1010.9
20260504205516 81 203 2.0 7.0 0.00 0.00 0.00 68 1011.2
20260504204516 81 203 3.0 8.0 0.00 0.00 0.00 66 1011.3
20260504203516 80 270 2.0 5.0 0.00 0.00 0.00 66 1011.5
20260504202516 81 203 3.0 8.0 0.00 0.00 0.00 64 1011.7
20260504201516 80 248 2.0 5.0 0.00 0.00 0.00 66 1011.6
20260504200516 80 203 3.0 8.0 0.00 0.00 0.00 65 1012.0
20260504195516 80 203 2.0 6.0 0.00 0.00 0.00 66 1012.1
20260504194516 80 203 4.0 8.0 0.00 0.00 0.00 65 1012.2
20260504193516 80 203 2.0 6.0 0.00 0.00 0.00 66 1012.5
20260504192516 79 225 2.0 6.0 0.00 0.00 0.00 65 1012.4
20260504191556 79 203 3.0 9.0 0.00 0.00 0.00 64 1012.7
20260504190556 80 180 3.0 10.0 0.00 0.00 0.00 64 1012.9
20260504185516 80 248 1.0 3.0 0.00 0.00 0.00 64 1012.9
20260504184516 79 203 4.0 14.0 0.00 0.00 0.00 65 1013.0
20260504183516 80 180 3.0 8.0 0.00 0.00 0.00 64 1013.2
20260504182516 79 180 4.0 9.0 0.00 0.00 0.00 64 1013.2
20260504181516 79 248 2.0 6.0 0.00 0.00 0.00 65 1013.4
20260504180516 79 203 3.0 9.0 0.00 0.00 0.00 66 1013.3
20260504175516 79 203 4.0 10.0 0.00 0.00 0.00 66 1013.6
20260504174516 79 180 3.0 8.0 0.00 0.00 0.00 65 1013.8
20260504173516 78 203 2.0 6.0 0.00 0.00 0.00 66 1013.8
20260504172516 78 225 3.0 7.0 0.00 0.00 0.00 68 1013.9
20260504171516 78 180 4.0 10.0 0.00 0.00 0.00 66 1014.1
20260504170516 78 203 2.0 5.0 0.00 0.00 0.00 68 1014.2
20260504150516 73 248 1.0 7.0 0.00 0.00 0.00 75 1015.1
20260504140516 67 248 1.0 3.0 0.00 0.00 0.00 87 1015.1
20260504130515 58 0.0 3.0 0.00 0.00 0.00 97 1015.1
20260504110516 55 0.0 0.0 0.00 0.00 0.00 95 1014.8
20260504100515 56 0.0 0.0 0.00 0.00 0.00 94 1014.9